This demonstration page uses our WeatherBlox Daily Observations layout. Learn more.

Left ArrowRight Arrow

38.20091, -84.87328

Hourly Observations for June 9, 2021

Temp ( °F °C ) Dew Point ( °F °C ) Humidity (%) Winds ( mph kmh ) Pressure ( in mb ) Visibility ( mi km ) Precip ( " mm )
12:53 am 00:53 Mostly Cloudy 72 22.2 70 21.1 94 94 E 3 6 30.04 1017 9 14 0.01 0.25
1:53 am 01:53 Cloudy with Light Rain 72 22.2 69 20.6 91 91 E 5 7 30.04 1017 9 14 0.01 0.25
2:53 am 02:53 Cloudy 72 22.2 68 20 87 87 SE 6 9 30.03 1017 10 16 0.01 0.25
3:53 am 03:53 Cloudy 72 22.2 68 20 87 87 SSE 3 6 30.02 1017 10 16 0.00 0.00
4:53 am 04:53 Cloudy with Light Rain 71 21.7 68 20 90 90 SE 3 6 30.02 1017 10 16 0.02 0.51
5:53 am 05:53 Partly Cloudy with Light Rain 70 21.1 67 19.4 90 90 SE 3 6 30.02 1017 10 16 0.01 0.25
6:53 am 06:53 Partly Cloudy 70 21.1 68 20 93 93 SE 3 6 30.02 1017 10 16 0.00 0.00
7:53 am 07:53 Cloudy 72 22.2 68 20 87 87 SSE 3 6 30.04 1017 10 16 0.01 0.25
8:53 am 08:53 Cloudy with Light Rain 72 22.2 68 20 87 87 S 7 11 30.04 1017 10 16 0.00 0.00
9:53 am 09:53 Cloudy 72 22.2 68 20 87 87 S 7 11 30.05 1018 10 16 0.01 0.25
10:39 am 10:39 Cloudy 74 23.3 69 20.6 85 85 SSE 7 11 30.04 1017 10 16 0.01 0.25
10:53 am 10:53 Cloudy 73 22.8 69 20.6 87 87 S 6 9 30.05 1018 10 16 0.01 0.25
11:00 am 11:00 Cloudy 73 22.8 69 20.6 87 87 SSW 7 11 30.05 1018 10 16 0.00 0.00
11:09 am 11:09 Cloudy with Light Rain 73 22.8 69 20.6 87 87 S 7 11 30.05 1018 10 16 0.00 0.00
11:23 am 11:23 Cloudy with Light Rain 74 23.3 69 20.6 85 85 SSW 6 9 30.05 1018 10 16 0.00 0.00
11:53 am 11:53 Cloudy with Light Rain 73 22.8 69 20.6 87 87 S 7 11 30.06 1018 10 16 0.01 0.25
12:00 pm 12:00 Cloudy with Light Rain 74 23.3 69 20.6 85 85 S 6 9 30.05 1018 9 14 0.00 0.00
12:53 pm 12:53 Cloudy 75 23.9 69 20.6 82 82 SSW 8 13 30.05 1018 10 16 0.01 0.25
1:16 pm 13:16 Cloudy 75 23.9 69 20.6 82 82 SSW 6 9 30.04 1017 10 16 0.00 0.00
1:31 pm 13:31 Cloudy 76 24.4 70 21.1 82 82 SSW 6 9 30.04 1017 10 16 0.00 0.00
1:44 pm 13:44 Cloudy 76 24.4 69 20.6 79 79 SSW 8 13 30.04 1017 10 16 0.00 0.00
1:53 pm 13:53 Cloudy 77 25 70 21.1 79 79 SW 7 11 30.04 1017 10 16 0.00 0.00
2:53 pm 14:53 Cloudy 77 25 69 20.6 77 77 WSW 6 9 30.02 1017 10 16 0.00 0.00
3:53 pm 15:53 Cloudy 78 25.6 69 20.6 74 74 S 6 9 30.00 1016 10 16 0.00 0.00
4:53 pm 16:53 Cloudy 78 25.6 69 20.6 74 74 Calm 29.98 1015 10 16 0.00 0.00
5:10 pm 17:10 Cloudy 78 25.6 70 21.1 76 76 SE 3 6 29.98 1015 10 16 0.00 0.00
5:53 pm 17:53 Cloudy 79 26.1 70 21.1 74 74 Calm 29.97 1015 10 16 0.00 0.00
6:53 pm 18:53 Cloudy 79 26.1 70 21.1 74 74 SE 5 7 29.95 1014 10 16 0.00 0.00
7:09 pm 19:09 Cloudy 78 25.6 70 21.1 76 76 Calm 29.94 1014 10 16 0.00 0.00
7:44 pm 19:44 Cloudy 79 26.1 70 21.1 74 74 SSW 3 6 29.94 1014 10 16 0.00 0.00
7:53 pm 19:53 Cloudy 79 26.1 70 21.1 74 74 SSW 3 6 29.95 1014 10 16 0.00 0.00
8:53 pm 20:53 Cloudy 78 25.6 70 21.1 76 76 Calm 29.96 1014 10 16 0.00 0.00
9:53 pm 21:53 Cloudy 76 24.4 71 21.7 85 85 Calm 29.97 1015 10 16 0.00 0.00
10:53 pm 22:53 Mostly Cloudy 73 22.8 70 21.1 90 90 Calm 29.98 1015 10 16 0.00 0.00
11:53 pm 23:53 Mostly Cloudy 72 22.2 70 21.1 94 94 Calm 29.97 1015 10 16 0.00 0.00

Powered by AerisWeather